sat.trackr.live / text

‹ back to catalog

ONEWEB-0547

NORAD 56049 · 2023-043D

PAYLOAD ACTIVE UNKNOWN

§ Identity

Operator
Country
UK
Launch date
2023-03-26
Launch site
SRILR
Launch vehicle
Mass (kg)
RCS (m²)

Purposes: comms

External: N2YO · Heavens-Above · Gunter

§ Orbital elements

Epoch: 2026-05-25T00:13:24.631104Z

Period
108.94 min
Inclination
87.9252°
Eccentricity
0.0001783
Mean motion
13.21825449 rev/d
Perigee alt
1,176.4 km
Apogee alt
1,179.1 km
Semi-major
7,555.9 km
B*
-5.8837e-4
RAAN
248.5849°
Arg perigee
100.5445°
Mean anomaly
259.5890°
Rev number
15,516

§ Raw data

ONEWEB-05471 56049U 23043D   26145.00931286 -.00000230  00000+0 -58837-3 0  99932 56049  87.9252 248.5849 0001783 100.5445 259.5890 13.21825449155162

JSON: /api/v1/satellites/56049 · /tle

For live sub-satellite position, see the globe view (requires WebGL).

§ Visibility from observer

Set your observer location to see the next 7 days of passes ≥ 10°. The values pass through the URL so the page stays shareable.

No JS? Fill the form by hand. The geolocation button needs JavaScript.